Regional Weather Roundup
Issued by NWS

Home | Current Version | Previous Version | Text Only | Print | Product List | Glossary Off
Versions: 1 2 3 4 5 6 7 8 9 10 11 12 13 14 15 16 17 18 19 20 21 22 23 24 25 26 27 28 29 30 31 32 33 34 35 36 37 38 39 40 41 42 43 44 45 46 47 48 49 50

423
ASUS45 KABQ 040110
RWRNM
NEW MEXICO REGIONAL WEATHER ROUNDUP
NATIONAL WEATHER SERVICE ALBUQUERQUE NM
600 PM MST SAT DEC 03 2016

NOTE: "FAIR" MEANS FEW OR NO CLOUDS BELOW 12,000 FEET AGL WITH NO
       SIGNIFICANT WEATHER OR OBSTRUCTIONS TO VISION.

      THIS PRODUCT IS RELEASED AS TWO VERSIONS.  ONE VERSION NEAR
      THE TOP OF THE HOUR CONTAINING PRELIMINARY DATA FROM ALBUQUERQUE
      AND OTHER STATIONS.  A FINAL VERSION WITH ADDITIONAL DATA IS
      ISSUED ABOUT 10 MINUTES AFTER THE HOUR.

NMZ501-503-504-510>518-040200-
NORTHWEST PLATEAU/NORTHCENTRAL MOUNTAINS

CITY           SKY/WX    TMP DP  RH WIND       PRES   REMARKS
FARMINGTON     FAIR      34  16  47 W8        30.04S WCI  27
LOS ALAMOS     FAIR      37  11  35 W7        29.99S WCI  31
SANTA FE       FAIR      35  21  56 N6        29.96F WCI  30
TAOS           FAIR      23  12  63 N9        30.01R WCI  13
ANGEL FIRE     FAIR      28  18  66 W15       29.98S WCI  17

$$
NMZ402-403-502-505>509-040200-
WESTCENTRAL MOUNTAINS/SOUTHWEST MOUNTAINS

CITY           SKY/WX    TMP DP  RH WIND       PRES   REMARKS
GALLUP         FAIR      32  23  69 NE6       30.07S WCI  26
GRANTS         FAIR      31  25  76 NW13      30.08R WCI  22
SILVER CITY    CLOUDY    42  38  83 SW5       29.99R

$$
NMZ407-409-411-412-040200-
SOUTHERN DESERTS

CITY           SKY/WX    TMP DP  RH WIND       PRES   REMARKS
DEMING         CLOUDY    43  39  86 SW5       29.97R
LAS CRUCES     CLOUDY    47  38  71 CALM      29.98R
HOLLOMAN AFB   CLOUDY    45  40  80 SE5       30.00R
T OR C         CLOUDY    46  30  53 N7        29.99R

$$
NMZ519>523-040200-
CENTRAL VALLEYS/CENTRAL HIGHLANDS

CITY           SKY/WX    TMP DP  RH WIND       PRES   REMARKS
ALBUQUERQUE    FAIR      40  26  57 NW13      30.02R WCI  32
DOUBLE EAGLE   CLEAR     36  27  69 NW20G25   30.02S WCI  25
MORIARTY ARPT  FAIR      32  23  68 NW3       29.99R
CLINES CORNERS FAIR      31  23  72 NW12      29.98R WCI  22
BELEN          FAIR      39  32  77 NW7       30.02R WCI  34
SOCORRO        FAIR      41  29  62 N5        30.00R

$$
NMZ524>526-539-540-040200-
SOUTHCENTRAL MOUNTAINS

CITY           SKY/WX    TMP DP  RH WIND       PRES   REMARKS
RUIDOSO        MOCLDY    32  32 100 MISG      30.00R

$$
NMZ527>531-040200-
NORTHEAST HIGHLANDS/NORTHEAST PLAINS

CITY           SKY/WX    TMP DP  RH WIND       PRES   REMARKS
LAS VEGAS      FAIR      29  24  82 E9        29.92R WCI  20
RATON          FAIR      29  23  78 NE8       29.94R WCI  21
CLAYTON        FAIR      32  32 100 SW8       29.93R WCI  25

$$
NMZ532>537-040200-
EASTCENTRAL PLAINS

CITY           SKY/WX    TMP DP  RH WIND       PRES   REMARKS
TUCUMCARI      FAIR      36  33  89 S6        29.95S WCI  31
CANNON AFB     CLOUDY    38  38 100 SW5       29.99R WCI  34
CLOVIS AIRPORT CLOUDY    37  34  87 CALM      30.00R

$$
NMZ028-029-538-040200-
SOUTHEAST PLAINS

CITY           SKY/WX    TMP DP  RH WIND       PRES   REMARKS
ROSWELL        CLOUDY    40  35  83 CALM      29.99S
ARTESIA        CLOUDY    39  39 100 CALM      30.02R
CARLSBAD       CLOUDY    38  37  97 NW10      29.99S WCI  31
HOBBS          DRIZZLE   39  39 100 NE5       29.98S


$$




USA.gov is the U.S. government's official web portal to all federal, state and local government web resources and services.